Weather in Indore

India     22°43′23″N   75°51′42″E
temp.,
°C
wind,
m/s
gust,
m/s
humid.,
%
clouds,
%
prec.,
mm/h
press.,
hPa
HPBL,
m
5 august, thu
thu523:30+24wsw7149299 1.8 1004562
02:30+23wsw71492100 0.1 1003696
05:30+23w71492100 0.9 1003698
08:30+23w71393100 2.8 1004703
11:30+24w71287100 3.1 1004727
14:30+23w61290100 2.6 1002630
17:30+23w51191100 5.4 1002640
20:30+23w51188100 0.0 1004368
6 august, fri
fri623:30+23wsw61389100 0.0 1004445
02:30+23wsw61489100 0.0 1002487
05:30+22w61393100 0.6 1002563
08:30+22w51196100 4.3 1005658
11:30+22w61297100 17.6 1005608
14:30+22w71296100 5.0 1003591
17:30+22w61194100 5.4 1003512
20:30+22w5119386 0.0 1004440
7 august, sat
sat723:30+21wsw389281 0.0 1004195
02:30+22wsw4119599 0.0 1003433
05:30+22wsw51194100 0.3 1003480
08:30+23wsw4109593 0.6 1006515
11:30+24w5986100 0.8 1006582
14:30+25wnw4883100 0.3 1004771
17:30+26wnw468193 1.2 1003698
20:30+23w249441 0.3 100591
8 august, sun
sun823:30+23wsw369493 0.3 1005166
02:30+22wsw399410 0.0 1005295
05:30+22wsw3109526 0.0 1005375
08:30+24wsw6985100 0.0 1007580
11:30+26w6779100 1.4 1007922
14:30+27w677397 1.0 10051012
17:30+27w467565 1.2 1004972
20:30+24wsw36872 0.0 1006159
9 august, mon
mon923:30+24wsw48905 0.3 1007253
02:30+23wsw399195 0.0 1006275
05:30+22w399244 0.0 1007305
08:30+25w698113 0.0 1008551
11:30+28w667189 0.3 10071090
14:30+29w676787 1.4 10051309
17:30+28w47769 4.3 1005803
20:30+24wsw4988100 0.8 1007261